Weather History for KLXT - August, 2013

Change the Weather History Date:

Monday, August 26, 2013

  Actual Average (KMKC) Record (KMKC)
Temperature  
Mean Temperature 82 °F -  
Max Temperature 93 °F 86 °F 102 °F (2003)
Min Temperature 73 °F 68 °F 61 °F (2010)
Cooling Degree Days 17    
Growing Degree Days 32 (Base 50)    
Moisture  
Dew Point 69 °F    
Average Humidity 64    
Maximum Humidity 84    
Minimum Humidity 44    
Precipitation  
Precipitation 0.00 in - - ()
Sea Level Pressure  
Sea Level Pressure 30.11 in    
Wind  
Wind Speed 9 mph (SSW)    
Max Wind Speed 16 mph    
Max Gust Speed 20 mph    
Visibility 10 miles    
Events      
Averages and records for this station are not official NWS values.
T = Trace of Precipitation, MM = Missing Value Source: NWS Daily Summary

Daily Weather History Graph

Daily Weather History Graph

Search for Another Location

Airport or City:

Trip Planner

Search our weather history database for the weather conditions in past years. The results will help you decide how hot, cold, wet, or windy it might be!

Date:

Astronomy

Aug. 26, 2013 Rise Set
Actual Time 6:41 AM CDT 7:56 PM CDT
Civil Twilight 6:13 AM CDT 8:24 PM CDT
Nautical Twilight 5:40 AM CDT 8:57 PM CDT
Astronomical Twilight 5:05 AM CDT 9:31 PM CDT
Moon 11:11 PM CDT (8/26) 12:39 PM CDT (8/26)
Length of Visible Light 14h 10m
Length of Day
13h 15m
Waning Gibbous, 66% of the Moon is Illuminated
Aug 26
Waning Gibbous
Aug 28
Last Quarter
Sep 5
New
Sep 12
First Quarter
Sep 19
Full

Hourly Weather History & Observations

Time (CDT) Temp. Heat Index Dew Point Humidity Pressure Visibility Wind Dir Wind Speed Gust Speed Precip Events Conditions
12:53 AM 78.1 °F - 68.0 °F 71% 30.15 in 10.0 mi South 8.1 mph - N/A   Clear
1:53 AM 77.0 °F - 68.0 °F 74% 30.14 in 10.0 mi South 6.9 mph - N/A   Clear
2:53 AM 77.0 °F - 68.0 °F 74% 30.14 in 10.0 mi South 6.9 mph - N/A   Clear
3:53 AM 75.9 °F - 66.9 °F 74% 30.13 in 10.0 mi South 8.1 mph - N/A   Clear
4:53 AM 73.9 °F - 68.0 °F 82% 30.14 in 10.0 mi SSW 6.9 mph - N/A   Clear
5:53 AM 73.9 °F - 68.0 °F 82% 30.14 in 10.0 mi SSW 6.9 mph - N/A   Clear
6:53 AM 73.0 °F - 68.0 °F 84% 30.15 in 10.0 mi SSW 6.9 mph - N/A   Clear
7:53 AM 75.9 °F - 69.1 °F 79% 30.16 in 10.0 mi SSW 10.4 mph - N/A   Clear
8:53 AM 79.0 °F - 69.1 °F 72% 30.16 in 10.0 mi SW 11.5 mph - N/A   Clear
9:53 AM 82.9 °F 86.5 °F 69.1 °F 63% 30.17 in 10.0 mi SW 11.5 mph - N/A   Clear
10:53 AM 84.9 °F 88.2 °F 68.0 °F 57% 30.16 in 10.0 mi WSW 11.5 mph 19.6 mph N/A   Clear
11:53 AM 87.1 °F 90.6 °F 68.0 °F 53% 30.15 in 10.0 mi WSW 16.1 mph - N/A   Clear
12:53 PM 90.0 °F 94.5 °F 69.1 °F 50% 30.13 in 10.0 mi SW 13.8 mph - N/A   Clear
1:53 PM 91.0 °F 95.2 °F 68.0 °F 47% 30.11 in 10.0 mi SSW 13.8 mph 19.6 mph N/A   Clear
2:53 PM 91.9 °F 95.4 °F 66.9 °F 44% 30.09 in 10.0 mi SW 10.4 mph 17.3 mph N/A   Partly Cloudy
3:53 PM 91.9 °F 95.9 °F 68.0 °F 45% 30.07 in 10.0 mi SSW 11.5 mph - N/A   Partly Cloudy
4:53 PM 91.0 °F 95.6 °F 69.1 °F 48% 30.07 in 10.0 mi South 8.1 mph - N/A   Partly Cloudy
5:53 PM 90.0 °F 93.6 °F 68.0 °F 48% 30.06 in 10.0 mi South 10.4 mph 18.4 mph N/A   Clear
6:53 PM 88.0 °F 92.1 °F 69.1 °F 53% 30.06 in 10.0 mi SSW 10.4 mph - N/A   Clear
7:53 PM 86.0 °F 90.7 °F 70.0 °F 59% 30.06 in 10.0 mi South 6.9 mph - N/A   Clear
8:53 PM 84.0 °F 88.4 °F 70.0 °F 63% 30.06 in 10.0 mi South 8.1 mph - N/A   Clear
9:53 PM 82.0 °F 85.9 °F 70.0 °F 67% 30.06 in 10.0 mi SSW 9.2 mph - N/A   Clear
10:53 PM 80.1 °F 82.9 °F 69.1 °F 69% 30.06 in 10.0 mi SSW 6.9 mph - N/A   Clear
11:53 PM 79.0 °F - 69.1 °F 72% 30.05 in 10.0 mi SSW 10.4 mph - N/A   Clear